[[{"header":{"parameterUnit":"m.s-1","parameterCategory":1,"la1":30.2992,"la2":30.254,"lo1":-89.0895,"lo2":-89.0443,"dy":0.0025,"dx":0.0025,"nx":19,"ny":19,"refTime":"2026-03-09T03:00:00:Z","depth":0,"parameterNumber":2,"parameterNumberName":"U-component_of_WINDS"},"data":[0,0,0,-0.8679,-0.8678,-0.8627,-0.8627,-0.8572,-0.8572,0,0,0,0,0,0,0,0,0,0,0,-0.87,-0.87,-0.8679,-0.8678,-0.8627,-0.8627,-0.8573,-0.8572,0,0,0,0,0,0,0,0,0,0,0,-0.87,-0.87,-0.87,-0.8678,-0.8627,-0.8627,-0.8573,-0.8607,0,0,0,0,0,0,0,0,0,0,-0.8655,-0.868,-0.87,-0.87,-0.8677,-0.8627,-0.8627,-0.8609,-0.8605,-0.86,0,-0.8597,0,-0.8584,-0.8569,-0.8569,0,0,0,-0.8674,-0.8683,-0.8664,-0.87,-0.8677,-0.8627,-0.8649,-0.8607,-0.8603,-0.8595,-0.8596,-0.8593,-0.8583,-0.8569,-0.8569,-0.8552,-0.8552,0,0,-0.8676,-0.8694,-0.8667,-0.8662,-0.8669,-0.865,-0.8647,-0.8604,-0.8606,-0.8595,-0.8592,-0.8582,-0.8569,-0.8568,-0.8552,-0.8552,0,0,0,-0.8687,-0.8696,-0.8678,-0.8664,-0.8654,-0.8649,-0.8645,-0.8608,-0.86,-0.8591,-0.8581,-0.8568,-0.8568,-0.8552,-0.8552,-0.8575,0,0,0,-0.8689,-0.8703,-0.8679,-0.869,-0.8655,-0.863,-0.865,-0.8603,-0.8598,-0.8581,-0.8568,-0.8567,-0.8552,-0.8552,-0.8574,-0.8583,0,0,0,-0.8701,-0.8704,-0.8699,-0.8691,-0.867,-0.863,-0.862,-0.8602,-0.8592,-0.8569,-0.8567,-0.8551,-0.8552,-0.8573,-0.8581,-0.8584,0,0,0,-0.872,-0.872,-0.8699,-0.8696,-0.867,-0.8645,-0.862,-0.8601,-0.8584,-0.8568,-0.8552,-0.8552,-0.8573,-0.858,-0.8583,-0.8588,-0.8592,0,0,-0.873,-0.8722,-0.8719,-0.8699,-0.8682,-0.8651,-0.8638,-0.8606,-0.8588,-0.8565,-0.8565,-0.8574,-0.8581,-0.8583,-0.8609,-0.8613,0,0,0,-0.8728,-0.8726,-0.8718,-0.8702,-0.8677,-0.8657,-0.8625,-0.8613,-0.8593,-0.858,-0.8575,-0.8579,-0.8579,-0.8581,-0.8584,-0.8583,-0.8554,-0.8554,-0.8554,-0.8769,-0.8745,-0.8738,-0.8708,-0.8693,-0.866,-0.8647,-0.8625,-0.8606,-0.8605,-0.8598,-0.8617,-0.862,-0.8622,-0.8621,-0.86,-0.86,-0.86,-0.86,-0.8782,-0.8775,-0.8749,-0.8732,-0.8708,-0.8694,-0.8663,-0.865,-0.8634,-0.862,-0.8619,-0.8607,-0.8626,-0.8625,-0.8601,-0.8601,-0.8601,-0.8601,-0.8601,-0.8805,-0.8798,-0.8783,-0.8758,-0.8742,-0.8712,-0.8698,-0.8676,-0.8655,-0.8655,-0.8645,-0.8645,-0.8641,-0.8652,-0.8652,-0.8652,-0.8652,-0.8652,-0.8652,-0.8836,-0.8818,-0.8808,-0.8782,-0.8769,-0.875,-0.8717,-0.8704,-0.8684,-0.8669,-0.8669,-0.865,-0.8632,-0.8628,-0.8653,-0.8653,-0.8653,-0.8652,-0.8652,-0.8858,-0.8849,-0.8834,-0.8821,-0.8788,-0.8774,-0.8746,-0.8721,-0.8708,-0.8701,-0.8683,-0.8673,-0.8663,-0.8661,-0.8657,-0.8688,-0.8688,-0.8688,-0.8688,-0.8877,-0.887,-0.885,-0.883,-0.8809,-0.8783,-0.8767,-0.8742,-0.8714,-0.8705,-0.8697,-0.8691,-0.8689,-0.868,-0.8677,-0.8674,-0.8708,-0.8708,-0.8708,-0.8889,-0.8879,-0.8869,-0.8842,-0.8815,-0.8792,-0.8777,-0.8757,-0.8724,-0.8708,-0.8696,-0.8696,-0.8685,-0.8682,-0.8666,-0.8662,-0.8655,0,0]},{"header":{"parameterUnit":"m.s-1","parameterCategory":1,"la1":30.2992,"la2":30.254,"lo1":-89.0895,"lo2":-89.0443,"dy":0.0025,"dx":0.0025,"nx":19,"ny":19,"refTime":"2026-03-09T03:00:00:Z","depth":0,"parameterNumber":3,"parameterNumberName":"V-component_of_WINDS"},"data":[0,0,0,1.6556,1.6559,1.6668,1.6669,1.6801,1.6803,0,0,0,0,0,0,0,0,0,0,0,1.6518,1.6518,1.6556,1.6559,1.6668,1.6669,1.6801,1.6803,0,0,0,0,0,0,0,0,0,0,0,1.6518,1.6518,1.6519,1.6559,1.6668,1.6669,1.6801,1.6721,0,0,0,0,0,0,0,0,0,0,1.6616,1.6574,1.6518,1.6519,1.656,1.6668,1.6669,1.6718,1.6726,1.6748,0,1.6764,0,1.6785,1.6811,1.6811,0,0,0,1.6564,1.6567,1.6602,1.6519,1.6561,1.6668,1.662,1.6723,1.6732,1.6759,1.6766,1.6771,1.6788,1.6812,1.6812,1.6918,1.6918,0,0,1.6558,1.6535,1.6595,1.6608,1.6589,1.6617,1.6624,1.6729,1.6735,1.6767,1.6775,1.679,1.6812,1.6813,1.6918,1.6918,0,0,0,1.6537,1.653,1.6563,1.6602,1.6622,1.662,1.6628,1.6731,1.6743,1.6776,1.6791,1.6813,1.6815,1.6917,1.6918,1.6908,0,0,0,1.6534,1.6518,1.656,1.6547,1.662,1.6678,1.6627,1.6736,1.6748,1.6791,1.6813,1.6816,1.6917,1.6918,1.6908,1.6908,0,0,0,1.6513,1.6516,1.6529,1.6545,1.6591,1.6676,1.6695,1.6739,1.6757,1.6811,1.6816,1.6917,1.6917,1.6908,1.6908,1.693,0,0,0,1.6484,1.6519,1.6529,1.6574,1.659,1.6669,1.6695,1.6755,1.68,1.6814,1.6917,1.6918,1.6907,1.6907,1.6929,1.6945,1.6949,0,0,1.6516,1.6522,1.6551,1.6563,1.6633,1.6654,1.6724,1.6788,1.6815,1.6882,1.6885,1.6908,1.6908,1.693,1.6977,1.698,0,0,0,1.6553,1.6574,1.6597,1.6639,1.6687,1.673,1.6785,1.6809,1.6867,1.6844,1.6922,1.6923,1.6937,1.6945,1.6948,1.6962,1.692,1.692,1.692,1.6566,1.6597,1.6647,1.6692,1.6732,1.6788,1.6824,1.6866,1.6886,1.6904,1.6925,1.695,1.6959,1.6961,1.6975,1.6935,1.6935,1.6935,1.6935,1.6616,1.665,1.6676,1.6734,1.6767,1.6817,1.6873,1.6886,1.6938,1.6937,1.6951,1.6947,1.6963,1.6977,1.6934,1.6934,1.6934,1.6934,1.6935,1.6629,1.6651,1.6678,1.6741,1.6787,1.6831,1.6879,1.6908,1.6936,1.695,1.6976,1.6976,1.6981,1.696,1.696,1.696,1.696,1.696,1.696,1.6631,1.6663,1.6699,1.6753,1.6784,1.6828,1.6885,1.6917,1.6959,1.6977,1.6977,1.6997,1.6958,1.6948,1.6962,1.6961,1.6961,1.6961,1.6961,1.6673,1.6668,1.6724,1.6755,1.6822,1.6865,1.6901,1.6963,1.6993,1.7017,1.7033,1.6999,1.7008,1.7007,1.6999,1.7025,1.7025,1.7025,1.7025,1.6684,1.6691,1.6756,1.6803,1.6852,1.689,1.6955,1.7,1.7046,1.7067,1.7067,1.7059,1.7056,1.7067,1.7064,1.7058,1.7098,1.7098,1.7098,1.6712,1.6725,1.6774,1.6817,1.6872,1.6918,1.698,1.7035,1.7086,1.7102,1.7085,1.7082,1.7069,1.7063,1.7079,1.7073,1.7062,0,0]}]]